SL-12 DEB, 43541

Orbit data source: Space-Track

SL-12 DEB, 43541 is space debris in HEO originally from a launch on Fri, 26 Oct 2007 UTC launched from the Tyuratam Missile And Space Complex (TTMTR). Debris objects in space refer to the collection of defunct objects orbiting the Earth. Examples of debris include non-operational satellites, rocket bodies, and fragments generated from explosions, collisions, or faulty payload assembly.

Loading next visibility...
Identifier
43541, 2007-052AH
Orbit
HEO
Country
Flag of CISCIS
Related business
Manufacturer
RKKE
Mission
Spacecraft
Bus & Motor
Unknown
Mass
Unknown
Launch date (UTC)
2007-10-26 (19 years ago)
Launch vehicle
Unknown
Launch site
Tyuratam Missile And Space Complex (TTMTR)
Object type
Payload
Rocket body
Debris
Shape & HBR
Unknown shape, 0.7 m
Radar Cross Section
Medium (>0.1 m² and <1 m²)

Expand to show TLE details & history
Last TLE update: 12 hours ago

TLE from 12 hours ago
0 SL-12 DEB
1 43541U 07052AH  26130.04496123  .00000716  00000-0  17434-2 0  9997
2 43541  65.0011 289.5753 5712405 212.2582  94.4664  4.26155673122026
Epoch: 2026-05-10T01:04Z
TLE epoch observation values (Epoch: 2026-05-10T01:04:44.650Z)
Latitude
0.00004°
Longitude
45.52619°
Altitude
14,576.969 km
Speed
3.639 km/s
True Right ascension
19h 18m 15s
True Declination
0° 00' 00"
Sunlit
Object was in daylight at epoch
Visualization orbit readout
Latitude
Unknown
Longitude
Unknown
Altitude
Unknown
Speed
Unknown
Apparent Right ascension
Unknown
Apparent Declination
Unknown
Sunlit
N/A
Visualization observer readout
Local Sidereal Time
21:15:20
Azimuth
Unknown
Elevation
Unknown
Doppler factor
Unknown
Orbital elements
Apogee altitude
18,870.32 km
Perigee altitude
511.652 km
Semi-major axis
16,069.123 km
Eccentricity
0.57124
Inclination
65.0011°
RAAN
289.5753°
Arg. of periapsis
212.2582°
True anomaly
147.80988°
Mean anomaly
94.4664°
Eccentric anomaly
122.17088°
Mean motion
1.0655 °/min
Orbital period
337.87 mins
BSTAR
0.0017434
Loading maneuver chart data...
Computing Atmospheric mass density...
Loading historical data...
Loading historical data...
Loading historical data...
Loading historical data...
Loading historical data...
Loading historical data...
Loading historical data...

Documentation

Showing up to 5 results
|